Weather History for LKPO - June, 2013

Change the Weather History Date:

Tuesday, June 25, 2013

  Actual Average Record
Temperature  
Mean Temperature 54 °F -  
Max Temperature 57 °F - - ()
Min Temperature 51 °F - - ()
Degree Days  
Heating Degree Days 11    
Growing Degree Days 4 (Base 50)    
Moisture  
Dew Point 53 °F    
Average Humidity 95    
Maximum Humidity 100    
Minimum Humidity 88    
Precipitation  
Precipitation 0.00 in - - ()
Sea Level Pressure  
Sea Level Pressure 29.90 in    
Wind  
Wind Speed 8 mph ()    
Max Wind Speed 16 mph    
Max Gust Speed -    
Visibility 4.1 miles    
Events Rain    
T = Trace of Precipitation, MM = Missing Value Source: Averaged Metar Reports

Daily Weather History Graph

Daily Weather History Graph

Search for Another Location

Airport or City:

Trip Planner

Search our weather history database for the weather conditions in past years. The results will help you decide how hot, cold, wet, or windy it might be!

Date:

Astronomy

Jun. 25, 2013 Rise Set
Actual Time 4:45 AM CEST 9:00 PM CEST
Civil Twilight 4:01 AM CEST 9:44 PM CEST
Nautical Twilight 2:58 AM CEST 10:47 PM CEST
Astronomical Twilight 1:25 AM CEST 12:20 AM CEST
Moon 10:15 PM CEST (6/25) 7:17 AM CEST (6/25)
Length of Visible Light 17h 42m
Length of Day
16h 15m
Waning Gibbous, 94% of the Moon is Illuminated
Jun 25
Waning Gibbous
Jun 30
Last Quarter
Jul 8
New
Jul 16
First Quarter
Jul 22
Full

Hourly Weather History & Observations

Time (CEST) Temp. Dew Point Humidity Pressure Visibility Wind Dir Wind Speed Gust Speed Precip Events Conditions
12:00 AM 53.6 °F 51.8 °F 94% 29.89 in 2.2 mi NW 10.4 mph - N/A Rain Rain
1:00 AM 53.6 °F 51.8 °F 94% 29.86 in 2.2 mi NNW 8.1 mph - N/A Rain Rain
1:08 AM 53.6 °F 51.8 °F 94% 29.86 in 2.5 mi NW 9.2 mph - N/A Rain Light Rain
2:00 AM 53.6 °F 51.8 °F 94% 29.86 in 2.5 mi NW 8.1 mph - N/A Rain Light Rain
3:00 AM 53.6 °F 51.8 °F 94% 29.83 in 2.5 mi NW 6.9 mph - N/A Rain Light Rain
4:00 AM 53.6 °F 53.6 °F 100% 29.83 in 3.7 mi NW 6.9 mph - N/A Rain Light Rain
5:00 AM 53.6 °F 53.6 °F 100% 29.83 in 2.5 mi West 4.6 mph - N/A Rain Light Rain
5:10 AM 53.6 °F 51.8 °F 94% 29.83 in 2.2 mi WNW 5.8 mph - N/A Rain Rain
6:00 AM 53.6 °F 53.6 °F 100% 29.83 in 2.2 mi West 6.9 mph - N/A Rain Rain
6:10 AM 53.6 °F 53.6 °F 100% 29.83 in 2.5 mi WSW 6.9 mph - N/A Rain Light Rain
7:00 AM 55.4 °F 53.6 °F 94% 29.83 in 2.5 mi WNW 8.1 mph - N/A Rain Light Rain
7:19 AM 55.4 °F 53.6 °F 94% 29.83 in 3.7 mi West 8.1 mph - N/A   Light Drizzle
8:00 AM 55.4 °F 53.6 °F 94% 29.83 in 3.1 mi West 6.9 mph - N/A   Light Drizzle
8:32 AM 55.4 °F 53.6 °F 94% 29.83 in 2.8 mi West 6.9 mph - N/A   Drizzle
9:00 AM 55.4 °F 55.4 °F 100% 29.86 in 5.0 mi WNW 5.8 mph - N/A   Drizzle
9:32 AM 57.2 °F 55.4 °F 94% 29.86 in 6.2 mi NNW 9.2 mph - N/A   Light Drizzle
10:00 AM 57.2 °F 55.4 °F 94% 29.86 in 6.2 mi NNW 9.2 mph - N/A   Overcast
11:00 AM 57.2 °F 53.6 °F 88% 29.86 in 6.2 mi NNW 10.4 mph - N/A   Light Drizzle
11:16 AM 55.4 °F 53.6 °F 94% 29.86 in 6.2 mi NNW 9.2 mph - N/A   Light Drizzle
12:00 PM 55.4 °F 53.6 °F 94% 29.89 in 3.1 mi NNW 9.2 mph - N/A   Light Drizzle
12:14 PM 55.4 °F 53.6 °F 94% 29.89 in 1.7 mi NNW 9.2 mph - N/A   Light Drizzle
1:00 PM 55.4 °F 53.6 °F 94% 29.92 in 1.8 mi NNW 10.4 mph - N/A Rain Light Rain
1:20 PM 55.4 °F 53.6 °F 94% 29.92 in - NW 11.5 mph - N/A Rain Light Rain
2:00 PM 57.2 °F 55.4 °F 94% 29.95 in - NNW 11.5 mph - N/A Rain Light Rain
3:00 PM 57.2 °F 55.4 °F 94% 29.95 in 5.0 mi NW 10.4 mph - N/A Rain Light Rain
4:00 PM 57.2 °F 55.4 °F 94% 29.98 in 6.2 mi NW 12.7 mph - N/A Rain Light Rain
5:00 PM 55.4 °F 53.6 °F 94% 29.98 in 6.2 mi NW 16.1 mph - N/A Rain Light Rain
6:00 PM 53.6 °F 51.8 °F 94% 30.01 in 6.2 mi NW 16.1 mph - N/A Rain Light Rain
7:00 PM 53.6 °F 51.8 °F 94% 30.01 in 6.2 mi NW 13.8 mph - N/A Rain Light Rain
8:00 PM 53.6 °F 51.8 °F 94% 30.04 in 6.2 mi NW 11.5 mph - N/A   Overcast
9:00 PM 53.6 °F 51.8 °F 94% 30.04 in 6.2 mi NW 4.6 mph - N/A Rain Light Rain
10:00 PM 51.8 °F 50.0 °F 94% 30.06 in 6.2 mi WNW 9.2 mph - N/A Rain Light Rain
11:00 PM 51.8 °F 50.0 °F 94% 30.06 in 6.2 mi WNW 5.8 mph - N/A Rain Light Rain